Location: ??????
(31.2056°N, 45.3906°E)
Time: 15:55:02
(UTC+00:00)

Cosmos 407 Rocket - Pass Details

Date: 09 April 2020
Orbit: 743 x 787 km, 74.1° (Epoch: 26 May)

Event Time Altitude Azimuth Distance (km) Brightness Sun altitude
Rises 15:37:30 0° 176° (S) 3,194 6.6 -3.8°
Reaches altitude 10° 15:39:59 10° 169° (S) 2,267 5.7 -4.4°
Maximum altitude 15:44:44 39° 101° (E) 1,108 3.9 -5.4°
Drops below altitude 10° 15:49:28 10° 33° (NNE) 2,261 5.7 -6.3°
Sets 15:51:56 0° 26° (NNE) 3,186 6.6 -6.9°
